H1 CPF 2 NER 2021 12 31 9 365 01 glonass140 H2 1903001 9140 44299 2021 12 31 0 0 0 2022 1 3 23 45 0 900 1 1 0 0 0 1 H9 10 0 59579 0.00000 0 22333065.041 -9355472.399 -8042300.971 10 0 59579 900.00000 0 21284885.789 -8809214.744 -10961297.775 10 0 59579 1800.00000 0 20005025.945 -7976559.691 -13667423.962 10 0 59579 2700.00000 0 18551303.158 -6843408.351 -16108035.630 10 0 59579 3600.00000 0 16985227.137 -5408070.660 -18235614.043 10 0 59579 4500.00000 0 15369417.362 -3681612.610 -20008696.789 10 0 59579 5400.00000 0 13764991.276 -1687667.948 -21392692.668 10 0 59579 6300.00000 0 12229032.753 538280.086 -22360564.010 10 0 59579 7200.00000 0 10812247.313 2950118.952 -22893362.543 10 0 59579 8100.00000 0 9556902.826 5492779.848 -22980607.906 10 0 59579 9000.00000 0 8495142.412 8104295.282 -22620500.804 10 0 59579 9900.00000 0 7647740.708 10718156.344 -21819966.059 10 0 59579 10800.00000 0 7023355.862 13265872.110 -20594524.085 10 0 59579 11700.00000 0 6618308.695 15679624.723 -18967992.735 10 0 59579 12600.00000 0 6416898.134 17894909.235 -16972024.813 10 0 59579 13500.00000 0 6392239.080 19853047.736 -14645490.024 10 0 59579 14400.00000 0 6507586.601 21503472.280 -12033713.269 10 0 59579 15300.00000 0 6718089.502 22805680.676 -9187584.444 10 0 59579 16200.00000 0 6972897.794 23730783.015 -6162557.601 10 0 59579 17100.00000 0 7217533.435 24262574.208 -3017559.800 10 0 59579 18000.00000 0 7396422.399 24398087.907 186167.937 10 0 59579 18900.00000 0 7455479.302 24147609.470 3386273.792 10 0 59579 19800.00000 0 7344633.712 23534148.668 6520517.809 10 0 59579 20700.00000 0 7020190.046 22592395.875 9527989.044 10 0 59579 21600.00000 0 6446920.372 21367207.321 12350292.714 10 0 59579 22500.00000 0 5599801.155 19911684.763 14932683.807 10 0 59579 23400.00000 0 4465320.461 18284931.725 17225124.997 10 0 59579 24300.00000 0 3042300.600 16549581.548 19183248.807 10 0 59579 25200.00000 0 1342201.715 14769201.476 20769206.172 10 0 59579 26100.00000 0 -611106.220 13005681.524 21952386.121 10 0 59579 27000.00000 0 -2782093.464 11316716.766 22709994.045 10 0 59579 27900.00000 0 -5124811.572 9753487.148 23027478.866 10 0 59579 28800.00000 0 -7584574.187 8358630.212 22898802.170 10 0 59579 29700.00000 0 -10100008.486 7164589.580 22326545.327 10 0 59579 30600.00000 0 -12605393.206 6192406.225 21321853.308 10 0 59579 31500.00000 0 -15033187.451 5451001.237 19904216.732 10 0 59579 32400.00000 0 -17316646.870 4936978.516 18101096.329 10 0 59579 33300.00000 0 -19392420.120 4634954.390 15947396.655 10 0 59579 34200.00000 0 -21203019.139 4518399.638 13484798.497 10 0 59579 35100.00000 0 -22699061.753 4550958.191 10760961.898 10 0 59579 36000.00000 0 -23841194.194 4688187.099 7828614.078 10 0 59579 36900.00000 0 -24601613.916 4879644.843 4744538.853 10 0 59579 37800.00000 0 -24965129.350 5071240.361 1568486.132 10 0 59579 38700.00000 0 -24929712.176 5207744.066 -1637978.269 10 0 59579 39600.00000 0 -24506518.508 5235355.066 -4812660.642 10 0 59579 40500.00000 0 -23719377.504 5104216.050 -7893942.587 10 0 59579 41400.00000 0 -22603768.035 4770769.147 -10821976.142 10 0 59579 42300.00000 0 -21205325.557 4199852.402 -13539847.441 10 0 59579 43200.00000 0 -19577941.084 3366447.102 -15994686.087 10 0 59579 44100.00000 0 -17781531.374 2257000.577 -18138698.335 10 0 59579 45000.00000 0 -15879573.399 870266.843 -19930103.506 10 0 59579 45900.00000 0 -13936506.185 -782372.478 -21333954.994 10 0 59579 46800.00000 0 -12015108.746 -2677122.690 -22322829.442 10 0 59579 47700.00000 0 -10173964.054 -4778519.192 -22877370.094 10 0 59579 48600.00000 0 -8465115.341 -7040670.199 -22986673.255 10 0 59579 49500.00000 0 -6932013.075 -9408948.822 -22648509.727 10 0 59579 50400.00000 0 -5607838.812 -11822065.060 -21869376.291 10 0 59579 51300.00000 0 -4514276.197 -14214432.131 -20664375.622 10 0 59579 52200.00000 0 -3660780.576 -16518728.799 -19056926.374 10 0 59579 53100.00000 0 -3044377.611 -18668550.659 -17078308.632 10 0 59579 54000.00000 0 -2649998.733 -20601039.324 -14767053.262 10 0 59579 54900.00000 0 -2451338.435 -22259379.052 -12168186.975 10 0 59579 55800.00000 0 -2412196.105 -23595055.645 -9332348.062 10 0 59579 56700.00000 0 -2488244.295 -24569782.454 -6314790.567 10 0 59579 57600.00000 0 -2629147.023 -25157012.395 -3174297.072 10 0 59579 58500.00000 0 -2780936.768 -25342972.459 27977.541 10 0 59579 59400.00000 0 -2888547.761 -25127177.676 3229707.678 10 0 59579 60300.00000 0 -2898396.650 -24522403.751 6368619.333 10 0 59579 61200.00000 0 -2760899.902 -23554120.668 9383708.104 10 0 59579 62100.00000 0 -2432820.315 -22259412.505 12216428.398 10 0 59579 63000.00000 0 -1879342.685 -20685430.315 14811830.220 10 0 59579 63900.00000 0 -1075790.650 -18887444.450 17119621.299 10 0 59579 64800.00000 0 -8912.239 -16926579.133 19095134.387 10 0 59579 65700.00000 0 1322319.861 -14867324.850 20700181.794 10 0 59579 66600.00000 0 2906426.679 -12774932.853 21903781.698 10 0 59579 67500.00000 0 4719671.669 -10712800.214 22682743.633 10 0 59579 68400.00000 0 6726829.395 -8739953.573 23022103.256 10 0 59579 69300.00000 0 8882442.370 -6908735.152 22915399.384 10 0 59579 70200.00000 0 11132514.285 -5262785.630 22364789.135 10 0 59579 71100.00000 0 13416570.129 -3835405.957 21380999.771 10 0 59579 72000.00000 0 15669998.621 -2648364.437 19983118.631 10 0 59579 72900.00000 0 17826580.999 -1711196.950 18198225.213 10 0 59579 73800.00000 0 19821102.487 -1021027.949 16060872.099 10 0 59579 74700.00000 0 21591939.125 -562918.554 13612424.060 10 0 59579 75600.00000 0 23083513.564 -310726.322 10900267.120 10 0 59579 76500.00000 0 24248518.395 -228440.256 7976901.766 10 0 59579 77400.00000 0 25049814.808 -271934.860 4898936.810 10 0 59579 78300.00000 0 25461927.491 -391069.599 1726002.346 10 0 59579 79200.00000 0 25472073.060 -532045.457 -1480397.968 10 0 59579 80100.00000 0 25080678.426 -639919.423 -4658073.569 10 0 59579 81000.00000 0 24301366.578 -661170.715 -7745349.962 10 0 59579 81900.00000 0 23160409.406 -546210.068 -10682264.759 10 0 59579 82800.00000 0 21695669.442 -251725.504 -13411733.433 10 0 59579 83700.00000 0 19955073.851 257235.466 -15880661.881 10 0 59579 84600.00000 0 17994683.665 1005536.487 -18040983.870 10 0 59579 85500.00000 0 15876438.391 2006650.387 -19850602.693 10 0 59580 0.00000 0 13665670.045 3261841.294 -21274218.189 10 0 59580 900.00000 0 11428489.006 4759868.064 -22284023.241 10 0 59580 1800.00000 0 9229153.873 6477221.832 -22860253.839 10 0 59580 2700.00000 0 7127531.262 8378892.055 -22991584.012 10 0 59580 3600.00000 0 5176754.702 10419629.148 -22675355.358 10 0 59580 4500.00000 0 3421179.462 12545652.948 -21917636.924 10 0 59580 5400.00000 0 1894719.024 14696736.560 -20733113.519 10 0 59580 6300.00000 0 619632.712 16808579.065 -19144804.036 10 0 59580 7200.00000 0 -394184.996 18815367.988 -17183614.805 10 0 59580 8100.00000 0 -1149384.248 20652424.090 -14887736.378 10 0 59580 9000.00000 0 -1660802.053 22258817.238 -12301895.352 10 0 59580 9900.00000 0 -1954583.164 23579842.928 -9476476.094 10 0 59580 10800.00000 0 -2066818.211 24569254.873 -6466529.966 10 0 59580 11700.00000 0 -2041758.279 25191159.273 -3330692.119 10 0 59580 12600.00000 0 -1929683.278 25421490.752 -130028.130 10 0 59580 13500.00000 0 -1784516.192 25249007.899 3073165.910 10 0 59580 14400.00000 0 -1661286.050 24675766.875 6216585.245 10 0 59580 15300.00000 0 -1613548.598 23717053.932 9239135.252 10 0 59580 16200.00000 0 -1690875.172 22400780.697 12082122.627 10 0 59580 17100.00000 0 -1936516.895 20766368.853 14690395.305 10 0 59580 18000.00000 0 -2385343.387 18863172.267 17013408.756 10 0 59580 18900.00000 0 -3062143.140 16748503.792 19006198.413 10 0 59580 19800.00000 0 -3980357.014 14485350.041 20630240.152 10 0 59580 20700.00000 0 -5141297.797 12139870.029 21854183.231 10 0 59580 21600.00000 0 -6533888.291 9778781.813 22654442.951 10 0 59580 22500.00000 0 -8134928.669 7466745.284 23015643.010 10 0 59580 23400.00000 0 -9909881.947 5263848.871 22930900.377 10 0 59580 24300.00000 0 -11814145.067 3223303.020 22401948.409 10 0 59580 25200.00000 0 -13794753.267 1389434.442 21439096.666 10 0 59580 26100.00000 0 -15792447.622 -203937.464 20061028.689 10 0 59580 27000.00000 0 -17744020.828 -1534676.424 18294441.678 10 0 59580 27900.00000 0 -19584844.918 -2593010.239 16173534.631 10 0 59580 28800.00000 0 -21251476.826 -3381689.871 13739354.176 10 0 59580 29700.00000 0 -22684234.443 -3915621.207 11039009.740 10 0 59580 30600.00000 0 -23829636.652 -4220985.679 8124772.131 10 0 59580 31500.00000 0 -24642605.996 -4333886.939 5053071.919 10 0 59580 32400.00000 0 -25088342.154 -4298580.630 1883415.973 10 0 59580 33300.00000 0 -25143787.634 -4165361.625 -1322757.722 10 0 59580 34200.00000 0 -24798623.666 -3988197.666 -4503265.291 10 0 59580 35100.00000 0 -24055753.705 -3822209.172 -7596379.645 10 0 59580 36000.00000 0 -22931253.055 -3721101.728 -10542027.404 10 0 59580 36900.00000 0 -21453785.475 -3734660.082 -13282956.650 10 0 59580 37800.00000 0 -19663509.879 -3906410.169 -15765852.628 10 0 59580 38700.00000 0 -17610521.622 -4271548.924 -17942379.370 10 0 59580 39600.00000 0 -15352892.571 -4855230.557 -19770126.495 10 0 59580 40500.00000 0 -12954390.994 -5671283.162 -21213442.365 10 0 59580 41400.00000 0 -10481975.850 -6721411.573 -22244136.903 10 0 59580 42300.00000 0 -8003169.742 -7994921.859 -22842039.839 10 0 59580 43200.00000 0 -5583419.897 -9468981.015 -22995403.031 10 0 59580 44100.00000 0 -3283557.191 -11109402.732 -22701138.402 10 0 59580 45000.00000 0 -1157459.305 -12871927.810 -21964886.280 10 0 59580 45900.00000 0 749984.458 -14703946.757 -20800912.160 10 0 59580 46800.00000 0 2404521.761 -16546593.170 -19231833.346 10 0 59580 47700.00000 0 3783730.473 -18337120.481 -17288180.275 10 0 59580 48600.00000 0 4877707.077 -20011462.313 -15007800.781 10 0 59580 49500.00000 0 5689222.189 -21506868.615 -12435118.774 10 0 59580 50400.00000 0 6233337.692 -22764506.115 -9620261.990 10 0 59580 51300.00000 0 6536503.072 -23731912.993 -6618076.334 10 0 59580 52200.00000 0 6635170.766 -24365203.723 -3487046.739 10 0 59580 53100.00000 0 6573990.870 -24630930.580 -288146.729 10 0 59580 54000.00000 0 6403663.543 -24507523.071 2916359.771 10 0 59580 54900.00000 0 6178541.926 -23986244.600 6064139.799 10 0 59580 55800.00000 0 5954088.792 -23071626.420 9094010.908 10 0 59580 56700.00000 0 5784296.095 -21781361.263 11947134.319 10 0 59580 57600.00000 0 5719177.647 -20145661.971 14568157.928 10 0 59580 58500.00000 0 5802441.590 -18206113.094 16906286.774 10 0 59580 59400.00000 0 6069441.160 -16014064.493 18916260.561 10 0 59580 60300.00000 0 6545490.011 -13628634.888 20559220.067 10 0 59580 61200.00000 0 7244612.615 -11114409.164 21803446.710 10 0 59580 62100.00000 0 8168781.716 -8538925.363 22624962.374 10 0 59580 63000.00000 0 9307674.370 -5970055.388 23007979.348 10 0 59580 63900.00000 0 10638956.411 -3473387.346 22945193.061 10 0 59580 64800.00000 0 12129083.419 -1109716.751 22437913.181 10 0 59580 65700.00000 0 13734584.987 1067251.089 21496031.432 10 0 59580 66600.00000 0 15403779.269 3012893.986 20137827.206 10 0 59580 67500.00000 0 17078847.176 4693280.405 18389614.846 10 0 59580 68400.00000 0 18698180.804 6086326.678 16285238.990 10 0 59580 69300.00000 0 20198909.267 7182457.342 13865427.093 10 0 59580 70200.00000 0 21519497.621 7984742.460 11177010.683 10 0 59580 71100.00000 0 22602311.289 8508507.195 8272029.277 10 0 59580 72000.00000 0 23396039.366 8780430.537 5206733.279 10 0 59580 72900.00000 0 23857875.698 8837171.351 2040504.089 10 0 59580 73800.00000 0 23955366.237 8723579.544 -1165288.505 10 0 59580 74700.00000 0 23667844.657 8490567.529 -4348470.056 10 0 59580 75600.00000 0 22987395.106 8192731.659 -7447263.759 10 0 59580 76500.00000 0 21919300.421 7885823.930 -10401488.146 10 0 59580 77400.00000 0 20481955.563 7624180.858 -13153726.768 10 0 59580 78300.00000 0 18706248.296 7458218.506 -15650446.951 10 0 59580 79200.00000 0 16634431.450 7432100.128 -17843045.549 10 0 59580 80100.00000 0 14318532.536 7581675.824 -19688800.870 10 0 59580 81000.00000 0 11818365.901 7932782.407 -21151711.847 10 0 59580 81900.00000 0 9199229.366 8499976.579 -22203207.647 10 0 59580 82800.00000 0 6529380.781 9285756.406 -22822713.324 10 0 59580 83700.00000 0 3877399.157 10280305.492 -22998060.019 10 0 59580 84600.00000 0 1309540.067 11461772.270 -22725731.130 10 0 59580 85500.00000 0 -1112804.506 12797074.066 -22010939.022 10 0 59581 0.00000 0 -3335435.866 14243193.268 -20867530.331 10 0 59581 900.00000 0 -5313371.889 15748912.782 -19317720.407 10 0 59581 1800.00000 0 -7012476.502 17256916.337 -17391663.233 10 0 59581 2700.00000 0 -8410631.615 18706168.035 -15126862.802 10 0 59581 3600.00000 0 -9498399.952 20034468.815 -12567438.753 10 0 59581 4500.00000 0 -10279153.108 21181082.344 -9763260.219 10 0 59581 5400.00000 0 -10768660.514 22089318.801 -6768965.341 10 0 59581 6300.00000 0 -10994158.215 22708966.742 -3642886.258 10 0 59581 7200.00000 0 -10992938.531 22998469.625 -445901.660 10 0 59581 8100.00000 0 -10810522.192 22926754.547 2759759.605 10 0 59581 9000.00000 0 -10498492.233 22474635.663 5911739.367 10 0 59581 9900.00000 0 -10112083.173 21635733.057 8948770.371 10 0 59581 10800.00000 0 -9707629.156 20416868.631 11811871.351 10 0 59581 11700.00000 0 -9339980.248 18837922.883 14445493.089 10 0 59581 12600.00000 0 -9059996.945 16931159.301 16798593.015 10 0 59581 13500.00000 0 -8912229.053 14740045.458 18825617.797 10 0 59581 14400.00000 0 -8932876.726 12317620.723 20487375.649 10 0 59581 15300.00000 0 -9148119.099 9724479.218 21751782.487 10 0 59581 16200.00000 0 -9572880.080 7026452.063 22594468.891 10 0 59581 17100.00000 0 -10210082.385 4292084.928 22999237.581 10 0 59581 18000.00000 0 -11050420.346 1590014.860 22958363.956 10 0 59581 18900.00000 0 -12072660.548 -1013646.039 22472735.127 10 0 59581 19800.00000 0 -13244457.504 -3457813.295 21551825.658 10 0 59581 20700.00000 0 -14523650.438 -5688717.066 20213510.989 10 0 59581 21600.00000 0 -15859987.481 -7661880.647 18483722.269 10 0 59581 22500.00000 0 -17197206.061 -9343710.257 16395948.890 10 0 59581 23400.00000 0 -18475383.453 -10712631.713 13990597.722 10 0 59581 24300.00000 0 -19633460.289 -11759728.173 11314220.464 10 0 59581 25200.00000 0 -20611832.317 -12488853.492 8418622.968 10 0 59581 26100.00000 0 -21354902.635 -12916217.190 5359872.692 10 0 59581 27000.00000 0 -21813487.776 -13069458.868 2197222.478 10 0 59581 27900.00000 0 -21946976.733 -12986251.100 -1008029.432 10 0 59581 28800.00000 0 -21725151.847 -12712489.443 -4193721.556 10 0 59581 29700.00000 0 -21129594.216 -12300145.664 -7298031.038 10 0 59581 30600.00000 0 -20154613.353 -11804874.544 -10260672.054 10 0 59581 31500.00000 0 -18807660.502 -11283475.162 -13024067.340 10 0 59581 32400.00000 0 -17109206.527 -10791313.985 -15534469.916 10 0 59581 33300.00000 0 -15092087.607 -10379818.865 -17743012.852 10 0 59581 34200.00000 0 -12800344.403 -10094150.351 -19606666.209 10 0 59581 35100.00000 0 -10287601.549 -9971149.408 -21089082.108 10 0 59581 36000.00000 0 -7615053.722 -10037649.148 -22161311.008 10 0 59581 36900.00000 0 -4849141.212 -10309222.970 -22802374.712 10 0 59581 37800.00000 0 -2059011.034 -10789423.122 -22999684.426 10 0 59581 38700.00000 0 686131.258 -11469543.107 -22749295.157 10 0 59581 39600.00000 0 3319668.974 -12328915.132 -22055990.856 10 0 59581 40500.00000 0 5780110.795 -13335731.152 -20933198.075 10 0 59581 41400.00000 0 8013410.751 -14448353.754 -19402729.194 10 0 59581 42300.00000 0 9974974.808 -15617062.135 -17494359.729 10 0 59581 43200.00000 0 11631270.486 -16786159.764 -15245247.644 10 0 59581 44100.00000 0 12960972.537 -17896354.630 -12699205.809 10 0 59581 45000.00000 0 13955597.266 -18887311.116 -9905841.988 10 0 59581 45900.00000 0 14619599.912 -19700264.971 -6919583.569 10 0 59581 46800.00000 0 14969932.338 -20280590.020 -3798606.753 10 0 59581 47700.00000 0 15035081.294 -20580207.165 -603692.176 10 0 59581 48600.00000 0 14853629.746 -20559733.070 2602969.619 10 0 59581 49500.00000 0 14472404.019 -20190277.062 5758998.367 10 0 59581 50400.00000 0 13944287.037 -19454810.018 8803044.958 10 0 59581 51300.00000 0 13325791.885 -18349047.446 11675988.326 10 0 59581 52200.00000 0 12674499.735 -16881809.707 14322084.538 10 0 59581 53100.00000 0 12046471.380 -15074844.714 16690045.465 10 0 59581 54000.00000 0 11493742.186 -12962121.015 18734026.441 10 0 59581 54900.00000 0 11062006.088 -10588621.341 20414504.470 10 0 59581 55800.00000 0 10788585.733 -8008687.380 21699030.974 10 0 59581 56700.00000 0 10700773.341 -5283984.834 22562845.912 10 0 59581 57600.00000 0 10814610.948 -2481173.056 22989342.822 10 0 59581 58500.00000 0 11134160.185 330624.576 22970377.188 10 0 59581 59400.00000 0 11651291.219 3082445.754 22506413.432 10 0 59581 60300.00000 0 12345999.042 5708102.517 21606508.614 10 0 59581 61200.00000 0 13187233.484 8146676.040 20288133.674 10 0 59581 62100.00000 0 14134208.292 10344791.465 18576835.838 10 0 59581 63000.00000 0 15138134.851 12258580.295 16505748.330 10 0 59581 63900.00000 0 16144308.653 13855250.525 14114956.308 10 0 59581 64800.00000 0 17094461.950 15114200.792 11450730.297 10 0 59581 65700.00000 0 17929284.874 16027633.316 8564640.892 10 0 59581 66600.00000 0 18591009.984 16600640.849 5512570.761 10 0 59581 67500.00000 0 19025952.262 16850764.548 2353642.078 10 0 59581 68400.00000 0 19186897.998 16807041.499 -850920.793 10 0 59581 69300.00000 0 19035241.871 16508581.842 -4038971.846 10 0 59581 70200.00000 0 18542781.648 16002735.136 -7148644.793 10 0 59581 71100.00000 0 17693093.876 15342922.971 -10119552.111 10 0 59581 72000.00000 0 16482431.237 14586228.916 -12893958.341 10 0 59581 72900.00000 0 14920102.027 13790847.382 -15417904.715 10 0 59581 73800.00000 0 13028313.842 13013499.058 -17642262.910 10 0 59581 74700.00000 0 10841486.002 12306922.236 -19523696.966 10 0 59581 75600.00000 0 8405057.473 11717546.265 -21025514.250 10 0 59581 76500.00000 0 5773838.317 11283445.962 -22118388.424 10 0 59581 77400.00000 0 3009972.018 11032664.001 -22780939.761 10 0 59581 78300.00000 0 180592.421 10981972.926 -23000161.022 10 0 59581 79200.00000 0 -2644728.011 11136129.845 -22771680.021 10 0 59581 80100.00000 0 -5396632.820 11487656.167 -22099853.138 10 0 59581 81000.00000 0 -8008628.817 12017152.453 -20997687.374 10 0 59581 81900.00000 0 -10419615.809 12694135.718 -19486591.860 10 0 59581 82800.00000 0 -12576193.231 13478364.264 -17595963.191 10 0 59581 83700.00000 0 -14434647.442 14321594.165 -15362612.296 10 0 59581 84600.00000 0 -15962536.785 15169693.044 -12830043.859 10 0 59581 85500.00000 0 -17139808.296 15965021.240 -10047602.516 10 0 59582 0.00000 0 -17959399.946 16648978.824 -7069503.145 10 0 59582 900.00000 0 -18427304.450 17164610.090 -3953763.232 10 0 59582 1800.00000 0 -18562092.312 17459153.331 -761063.215 10 0 59582 2700.00000 0 -18393917.369 17486428.209 2446447.195 10 0 59582 3600.00000 0 -17963047.441 17208957.875 5606368.281 10 0 59582 4500.00000 0 -17317984.598 16599735.878 8657271.789 10 0 59582 5400.00000 0 -16513256.177 15643562.771 11539899.637 10 0 59582 6300.00000 0 -15606971.450 14337895.981 14198315.973 10 0 59582 7200.00000 0 -14658248.267 12693177.278 16580989.904 10 0 59582 8100.00000 0 -13724618.985 10732624.420 18641788.152 10 0 59582 9000.00000 0 -12859525.126 8491495.976 20340859.106 10 0 59582 9900.00000 0 -12110005.881 6015860.375 21645392.128 10 0 59582 10800.00000 0 -11514676.837 3360920.561 22530238.756 10 0 59582 11700.00000 0 -11102082.609 588963.686 22978385.278 10 0 59582 12600.00000 0 -10889491.206 -2232979.460 22981268.878 10 0 59582 13500.00000 0 -10882179.293 -5035669.223 22538932.557 10 0 59582 14400.00000 0 -11073237.135 -7750282.287 21660016.741 10 0 59582 15300.00000 0 -11443900.501 -10311020.053 20361588.328 10 0 59582 16200.00000 0 -11964395.130 -12657593.905 18668810.618 10 0 59582 17100.00000 0 -12595258.263 -14737486.105 16614460.218 10 0 59582 18000.00000 0 -13289082.133 -16507894.120 14238299.658 10 0 59582 18900.00000 0 -13992606.825 -17937279.101 11586316.941 10 0 59582 19800.00000 0 -14649075.373 -19006455.297 8709845.626 10 0 59582 20700.00000 0 -15200752.854 -19709175.756 5664581.450 10 0 59582 21600.00000 0 -15591504.159 -20052190.422 2509513.433 10 0 59582 22500.00000 0 -15769322.256 -20054774.389 -694210.725 10 0 59582 23400.00000 0 -15688700.472 -19747745.998 -3884463.555 10 0 59582 24300.00000 0 -15312748.377 -19172015.793 -6999338.641 10 0 59582 25200.00000 0 -14614961.212 -18376726.990 -9978350.241 10 0 59582 26100.00000 0 -13580567.012 -17417065.368 -12763608.318 10 0 59582 27000.00000 0 -12207393.007 -16351830.543 -15300945.971 10 0 59582 27900.00000 0 -10506212.847 -15240870.756 -17540977.070 10 0 59582 28800.00000 0 -8500557.957 -14142489.287 -19440063.042 10 0 59582 29700.00000 0 -6225998.725 -13110931.934 -20961169.585 10 0 59582 30600.00000 0 -3728923.473 -12194061.712 -22074596.191 10 0 59582 31500.00000 0 -1064864.443 -11431319.207 -22758563.693 10 0 59582 32400.00000 0 1703560.952 -10852055.046 -22999647.913 10 0 59582 33300.00000 0 4509009.031 -10474305.295 -22793050.395 10 0 59582 34200.00000 0 7281971.367 -10304061.973 -22142700.289 10 0 59582 35100.00000 0 9953432.769 -10335069.915 -21061184.862 10 0 59582 36000.00000 0 12457515.192 -10549158.916 -19569509.325 10 0 59582 36900.00000 0 14733997.251 -10917097.295 -17696690.200 10 0 59582 37800.00000 0 16730604.133 -11399930.761 -15479189.778 10 0 59582 38700.00000 0 18404972.150 -11950749.644 -12960202.508 10 0 59582 39600.00000 0 19726205.718 -12516809.117 -10188807.406 10 0 59582 40500.00000 0 20675961.838 -13041911.800 -7219003.398 10 0 59582 41400.00000 0 21249017.231 -13468950.758 -4108647.082 10 0 59582 42300.00000 0 21453295.217 -13742504.017 -918314.674 10 0 59582 43200.00000 0 21309352.612 -13811369.481 2289888.587 10 0 59582 44100.00000 0 20849349.885 -13630931.821 5453547.184 10 0 59582 45000.00000 0 20115549.797 -13165260.265 8511157.242 10 0 59582 45900.00000 0 19158409.694 -12388847.966 11403326.948 10 0 59582 46800.00000 0 18034349.564 -11287919.151 14073931.489 10 0 59582 47700.00000 0 16803291.356 -9861248.843 16471199.761 10 0 59582 48600.00000 0 15526074.137 -8120460.816 18548712.017 10 0 59582 49500.00000 0 14261854.260 -6089791.392 20266289.748 10 0 59582 50400.00000 0 13065599.709 -3805329.202 21590761.552 10 0 59582 51300.00000 0 11985783.104 -1313762.671 22496591.458 10 0 59582 52200.00000 0 11062368.991 1329312.822 22966359.033 10 0 59582 53100.00000 0 10325178.324 4061458.120 22991083.347 10 0 59582 54000.00000 0 9792697.026 6815739.033 22570385.828 10 0 59582 54900.00000 0 9471376.905 9523264.383 21712489.820 10 0 59582 55800.00000 0 9355456.867 12115809.534 20434057.440 10 0 59582 56700.00000 0 9427310.817 14528418.289 18759867.080 10 0 59582 57600.00000 0 9658307.040 16701876.973 16722337.506 10 0 59582 58500.00000 0 10010142.782 18584959.574 14360907.173 10 0 59582 59400.00000 0 10436598.188 20136352.145 11721279.888 10 0 59582 60300.00000 0 10885636.297 21326177.577 8854550.300 10 0 59582 61200.00000 0 11301761.379 22137057.971 5816225.109 10 0 59582 62100.00000 0 11628536.891 22564670.801 2665157.887 10 0 59582 63000.00000 0 11811157.380 22617775.768 -537582.797 10 0 59582 63900.00000 0 11798966.062 22317711.036 -3729890.584 10 0 59582 64800.00000 0 11547811.652 21697379.701 -6849821.551 10 0 59582 65700.00000 0 11022144.347 20799768.529 -9836794.338 10 0 59582 66600.00000 0 10196761.522 19676060.716 -12632766.837 10 0 59582 67500.00000 0 9058127.985 18383421.563 -15183366.394 10 0 59582 68400.00000 0 7605213.342 16982549.784 -17438951.295 10 0 59582 69300.00000 0 5849809.126 15535097.275 -19355582.389 10 0 59582 70200.00000 0 3816310.127 14101065.748 -20895885.578 10 0 59582 71100.00000 0 1540966.756 12736289.837 -22029787.875 10 0 59582 72000.00000 0 -929362.293 11490112.695 -22735112.177 10 0 59582 72900.00000 0 -3538906.888 10403352.152 -22998018.641 10 0 59582 73800.00000 0 -6225062.522 9506643.260 -22813283.505 10 0 59582 74700.00000 0 -8920762.045 8819227.287 -22184409.311 10 0 59582 75600.00000 0 -11557043.954 8348238.384 -21123563.777 10 0 59582 76500.00000 0 -14065710.557 8088518.028 -19651347.928 10 0 59582 77400.00000 0 -16381965.134 8022965.058 -17796397.492 10 0 59582 78300.00000 0 -18446917.880 8123406.207 -15594824.972 10 0 59582 79200.00000 0 -20209855.714 8351949.838 -13089513.075 10 0 59582 80100.00000 0 -21630180.690 8662764.870 -10329273.398 10 0 59582 81000.00000 0 -22678935.784 9004208.570 -7367887.172 10 0 59582 81900.00000 0 -23339854.285 9321211.881 -4263047.397 10 0 59582 82800.00000 0 -23609889.207 9557819.895 -1075224.027 10 0 59582 83700.00000 0 -23499201.448 9659778.403 2133524.586 10 0 59582 84600.00000 0 -23030608.457 9577055.653 5300769.634 10 0 59582 85500.00000 0 -22238518.182 9266191.373 8364934.234 99